Location: Worth Mountain WMA
(34.9569°N, 81.4819°W)
Time: 06:53:20
(UTC-04:00)

Amateur Radio Satellites - All Passes

Search period start: 25 July 2017 06:23
Search period end: 26 July 2017 06:23
Location: Worth Mountain WMA, 34.9569°N, 81.4819°W

Satellite Date Start Highest point End Downlink Frequencies (MHz)
Time Altitude Azimuth
XW-2D 25 Jul 06:26:46 06:27:22 10° 92° (E) 06:27:57 145.860 - 145.880
SO-50 25 Jul 06:34:57 06:39:18 48° 115° (ESE) 06:43:40 436.795
XW-2B 25 Jul 06:35:35 06:37:30 13° 94° (E) 06:39:24 145.730 - 145.750
ITAMSAT 1 25 Jul 06:39:41 06:41:02 11° 299° (WNW) 06:42:24 435.822/435.867
CUTE-I 25 Jul 06:45:05 06:48:55 20° 94° (E) 06:52:42 437.470
STRAND 1 25 Jul 06:46:00 06:48:13 13° 63° (ENE) 06:50:25 437.568
XW-2C 25 Jul 06:51:57 06:54:58 23° 96° (E) 06:57:59 145.795 - 145.815
NUDT-PHONESAT 25 Jul 07:00:01 07:02:49 20° 96° (E) 07:05:36 437.300
YUBILEINY 25 Jul 07:01:25 07:10:14 85° 84° (E) 07:18:56 435.215
DOVE 4 25 Jul 07:13:21 07:18:34 65° 285° (WNW) 07:23:33 437.250
KAITUO 1B 25 Jul 07:13:53 07:17:15 32° 98° (E) 07:20:38 145.475/437.950
LilacSat-2 25 Jul 07:14:43 07:18:25 50° 99° (E) 07:22:06 437.200
AO-7 25 Jul 07:24:43 07:28:46 15° 308° (NW) 07:32:48 .
XW-2F 25 Jul 07:29:13 07:32:58 71° 101° (E) 07:36:42 145.980 - 146.000
XW-2D 25 Jul 07:58:09 08:01:41 40° 286° (WNW) 08:05:14 145.860 - 145.880
XW-2B 25 Jul 08:08:22 08:11:44 31° 287° (WNW) 08:15:04 145.730 - 145.750
SO-50 25 Jul 08:17:01 08:20:00 17° 311° (NW) 08:22:59 436.795
XW-2A 25 Jul 08:17:47 08:20:14 19° 96° (E) 08:22:40 145.665 - 145.685
STRAND 1 25 Jul 08:21:37 08:26:45 69° 258° (WSW) 08:31:54 437.568
CUTE-I 25 Jul 08:24:02 08:29:05 44° 289° (WNW) 08:34:06 437.470
XW-2C 25 Jul 08:26:18 08:28:58 19° 290° (WNW) 08:31:39 145.795 - 145.815
CUBEBUG 2 25 Jul 08:27:05 08:30:30 24° 95° (E) 08:33:52 437.445
HO-68 25 Jul 08:29:38 08:36:39 57° 102° (ESE) 08:43:38 435.675
NUDT-PHONESAT 25 Jul 08:33:51 08:36:34 20° 289° (WNW) 08:39:16 437.300
CUTE 1.7 + AOD 2 25 Jul 08:46:22 08:50:38 88° 287° (WNW) 08:54:54 437.475
KAITUO 1B 25 Jul 08:49:07 08:50:55 13° 291° (WNW) 08:52:43 145.475/437.950
SEEDS 25 Jul 08:58:29 09:02:43 79° 101° (E) 09:06:57 437.485
YUBILEINY 25 Jul 09:01:02 09:05:46 16° 281° (W) 09:10:30 435.215
FO-29 25 Jul 09:05:17 09:11:28 28° 64° (ENE) 09:17:50 435.910
UWE-3 25 Jul 09:24:22 09:28:32 69° 100° (E) 09:32:38 435.000/436.395/437.385
ZACube-1 25 Jul 09:37:57 09:42:00 50° 100° (E) 09:46:00 437.345
PRISM 25 Jul 09:40:39 09:42:36 13° 66° (ENE) 09:44:33 437.425
AAUSAT CUBESAT 2 25 Jul 09:41:52 09:46:02 71° 284° (WNW) 09:50:11 437.432
UNISAT 6 25 Jul 09:43:59 09:47:22 20° 69° (ENE) 09:50:44 437.425
XW-2A 25 Jul 09:50:37 09:52:48 17° 289° (WNW) 09:54:58 145.665 - 145.685
CUBEBUG 2 25 Jul 10:03:43 10:06:59 22° 290° (WNW) 10:10:12 437.445
Oscar 11 25 Jul 10:03:47 10:08:05 70° 101° (ESE) 10:12:23 .
AO-73 25 Jul 10:18:06 10:22:09 55° 285° (WNW) 10:26:10 145.935
HO-68 25 Jul 10:18:21 10:23:52 25° 298° (WNW) 10:29:24 435.675
TIGRISAT 25 Jul 10:26:51 10:31:24 55° 75° (ENE) 10:35:54 435.000
M-CUBED/EXP-1 PRIME 25 Jul 10:35:03 10:38:17 33° 67° (ENE) 10:41:47 437.505
DELFI C3 25 Jul 10:43:10 10:47:01 45° 99° (E) 10:50:52 145.870
FO-29 25 Jul 10:48:32 10:55:52 58° 260° (W) 11:03:38 435.910
EO-88 25 Jul 11:07:56 11:11:32 56° 100° (E) 11:15:06 145.990 - 145.960
PRISM 25 Jul 11:13:37 11:17:28 41° 261° (W) 11:21:22 437.425
NO-84 25 Jul 11:15:47 11:18:41 68° 130° (SE) 11:21:49 435.350 FM
ZACube-1 25 Jul 11:16:44 11:17:47 11° 294° (WNW) 11:18:49 437.345
UNISAT 6 25 Jul 11:19:36 11:23:49 34° 262° (W) 11:28:00 437.425
DUCHIFAT 1 25 Jul 11:39:29 11:41:50 15° 67° (ENE) 11:44:11 145.980
POLYITAN 1 25 Jul 11:41:29 11:44:34 20° 69° (ENE) 11:47:40 437.675
QB50P2 25 Jul 11:53:48 11:57:32 30° 71° (ENE) 12:01:15 145.880/145.840
EO-79 25 Jul 12:05:31 12:09:27 37° 73° (ENE) 12:13:24 145.935-145.965
NANOSAT C BR1 25 Jul 12:05:31 12:09:21 33° 72° (ENE) 12:13:10 145.865
TIGRISAT 25 Jul 12:06:37 12:08:20 12° 268° (W) 12:10:01 435.000
AO-85 25 Jul 12:09:24 12:11:50 15° 110° (ESE) 12:14:12 145.980
M-CUBED/EXP-1 PRIME 25 Jul 12:11:22 12:12:55 12° 264° (W) 12:14:30 437.505
DELFI C3 25 Jul 12:19:58 12:21:20 12° 293° (WNW) 12:22:43 145.870
AIST 2D 25 Jul 12:26:02 12:29:19 39° 261° (W) 12:32:37 435.315
Oscar 19 25 Jul 12:44:45 12:45:56 11° 62° (ENE) 12:47:07 437.125/150
LO-87 25 Jul 12:44:53 12:48:27 61° 284° (WNW) 12:51:58 145.935 - 145.965
SPROUT 25 Jul 12:46:44 12:48:55 14° 93° (E) 12:51:06 437.525
BEESAT 3 25 Jul 12:47:11 12:50:57 43° 114° (ESE) 12:54:46 437.485
ESTCUBE 1 25 Jul 12:47:41 12:52:11 68° 101° (ESE) 12:56:41 437.505/2401.250
NO-84 25 Jul 12:55:43 12:56:33 11° 329° (NNW) 12:57:24 435.350 FM
Gurwin Techsat 1B 25 Jul 13:11:31 13:14:04 14° 63° (ENE) 13:16:36 435.225
DUCHIFAT 1 25 Jul 13:13:08 13:17:07 40° 261° (W) 13:21:07 145.980
POLYITAN 1 25 Jul 13:16:24 13:20:07 29° 263° (W) 13:23:52 437.675
BEESAT 2 25 Jul 13:27:43 13:31:24 39° 114° (ESE) 13:35:10 435.950
QB50P2 25 Jul 13:30:18 13:33:18 19° 265° (W) 13:36:19 145.880/145.840
VELOX 1 25 Jul 13:32:17 13:36:31 41° 99° (E) 13:40:43 145.980
DX 1 25 Jul 13:38:37 13:40:39 13° 93° (E) 13:42:40 434.975-435.025
BUGSAT 1 25 Jul 13:40:20 13:44:34 74° 258° (WSW) 13:48:48 437.445
NANOSAT C BR1 25 Jul 13:42:21 13:45:05 17° 266° (W) 13:47:50 145.865
EO-79 25 Jul 13:42:51 13:45:18 15° 266° (W) 13:47:45 145.935-145.965
50 SAT 25 Jul 13:45:39 13:48:15 20° 96° (E) 13:50:50 437.505
AO-85 25 Jul 13:48:14 13:51:55 34° 304° (NW) 13:55:30 145.980
RS-15 25 Jul 14:12:06 14:16:42 13° 96° (E) 14:21:20 29.354- 29.394
UKube-1 25 Jul 14:19:12 14:22:48 25° 97° (E) 14:26:22 .
Oscar 19 25 Jul 14:19:24 14:24:31 79° 258° (WSW) 14:29:39 437.125/150
SPROUT 25 Jul 14:20:58 14:24:57 39° 287° (WNW) 14:28:54 437.525
BEESAT 3 25 Jul 14:26:23 14:28:44 15° 311° (NW) 14:31:05 437.485
ESTCUBE 1 25 Jul 14:28:01 14:28:22 10° 296° (WNW) 14:28:43 437.505/2401.250
AO-7 25 Jul 14:34:13 14:40:19 23° 57° (ENE) 14:46:25 .
Gurwin Techsat 1B 25 Jul 14:48:05 14:53:22 68° 258° (WSW) 14:58:41 435.225
O/OREOS (USA 219) 25 Jul 15:06:03 15:09:40 24° 102° (ESE) 15:13:17 437.305
PCSat 25 Jul 15:06:04 15:11:28 64° 62° (ENE) 15:16:49 145.827
BEESAT 2 25 Jul 15:06:45 15:09:18 16° 310° (NW) 15:11:54 435.950
SO-50 25 Jul 15:09:49 15:13:06 19° 50° (NE) 15:16:24 436.795
VELOX 1 25 Jul 15:09:57 15:12:35 16° 293° (WNW) 15:15:12 145.980
DX 1 25 Jul 15:12:49 15:17:01 45° 287° (WNW) 15:21:11 434.975-435.025
50 SAT 25 Jul 15:18:30 15:20:48 17° 290° (WNW) 15:23:06 437.505
UKube-1 25 Jul 15:55:15 15:58:40 23° 291° (WNW) 16:02:05 .
BEESAT 25 Jul 16:00:37 16:04:54 33° 98° (E) 16:09:09 436.000
ITAMSAT 1 25 Jul 16:11:34 16:16:48 87° 78° (ENE) 16:22:04 435.822/435.867
ITUPSAT 1 25 Jul 16:13:55 16:18:29 45° 100° (E) 16:23:01 437.325
RS-15 25 Jul 16:14:54 16:26:52 71° 113° (ESE) 16:39:08 29.354- 29.394
AO-7 25 Jul 16:23:54 16:32:14 74° 254° (WSW) 16:40:38 .
O/OREOS (USA 219) 25 Jul 16:45:12 16:48:55 25° 297° (WNW) 16:52:40 437.305
SO-50 25 Jul 16:49:26 16:53:43 42° 246° (WSW) 16:58:03 436.795
PCSat 25 Jul 16:51:31 16:54:14 14° 257° (WSW) 16:56:57 145.827
MOZHAYETS 4 25 Jul 16:57:25 17:01:58 75° 284° (WNW) 17:06:31
CUBESAT XI-V 25 Jul 17:33:11 17:37:42 47° 99° (E) 17:42:13 437.345
KKS-1 25 Jul 17:35:43 17:39:23 24° 96° (E) 17:43:00 437.445
BEESAT 25 Jul 17:38:51 17:42:26 22° 292° (WNW) 17:46:01 436.000
NO-84 25 Jul 17:52:00 17:54:14 15° 34° (NE) 17:56:32 435.350 FM
ITUPSAT 1 25 Jul 17:52:59 17:55:54 16° 294° (WNW) 17:58:48 437.325
LilacSat-2 25 Jul 17:54:31 17:56:48 16° 69° (ENE) 17:59:06 437.200
CUTE-I 25 Jul 18:03:35 18:07:50 24° 67° (ENE) 18:12:06 437.470
STARS 25 Jul 18:04:25 18:07:40 20° 95° (E) 18:10:54 437.465
YUBILEINY 25 Jul 18:05:00 18:10:38 19° 80° (E) 18:16:13 435.215
XW-2F 25 Jul 18:07:29 18:10:15 20° 71° (ENE) 18:13:00 145.980 - 146.000
DOVE 4 25 Jul 18:14:32 18:19:21 86° 78° (ENE) 18:24:29 437.250
AO-7 25 Jul 18:24:27 18:26:06 11° 270° (W) 18:27:45 .
RS-15 25 Jul 18:29:27 18:40:20 36° 316° (NW) 18:51:24 29.354- 29.394
XW-2D 25 Jul 18:35:35 18:39:15 52° 76° (ENE) 18:42:54 145.860 - 145.880
XW-2B 25 Jul 18:45:35 18:49:18 70° 78° (ENE) 18:53:03 145.730 - 145.750
HO-68 25 Jul 18:55:16 19:01:18 30° 64° (ENE) 19:07:20 435.675
XW-2C 25 Jul 19:02:58 19:06:42 64° 259° (W) 19:10:26 145.795 - 145.815
NUDT-PHONESAT 25 Jul 19:08:32 19:12:12 76° 258° (WSW) 19:15:52 437.300
CUBESAT XI-V 25 Jul 19:11:59 19:14:38 15° 293° (WNW) 19:17:18 437.345
KKS-1 25 Jul 19:12:09 19:15:49 25° 291° (WNW) 19:19:28 437.445
CUBEBUG 2 25 Jul 19:22:18 19:25:12 16° 68° (ENE) 19:28:02 437.445
KAITUO 1B 25 Jul 19:23:57 19:27:27 43° 261° (W) 19:31:00 145.475/437.950
LilacSat-2 25 Jul 19:27:34 19:30:50 27° 263° (W) 19:34:05 437.200
NO-84 25 Jul 19:28:06 19:32:05 80° 229° (SW) 19:36:19 435.350 FM
CUTE 1.7 + AOD 2 25 Jul 19:35:35 19:39:29 40° 74° (ENE) 19:43:25 437.475
STARS 25 Jul 19:40:10 19:43:59 29° 289° (WNW) 19:47:46 437.465
XW-2F 25 Jul 19:41:23 19:44:14 21° 264° (W) 19:47:06 145.980 - 146.000
CUTE-I 25 Jul 19:42:42 19:47:37 37° 262° (W) 19:52:35 437.470
SEEDS 25 Jul 19:46:53 19:50:36 33° 72° (ENE) 19:54:20 437.485
YUBILEINY 25 Jul 19:57:31 20:06:21 77° 277° (W) 20:15:13 435.215
ISS 25 Jul 20:11:41 20:14:19 23° 130° (SE) 20:16:58 437.550
XW-2A 25 Jul 20:17:10 20:20:33 85° 78° (ENE) 20:23:56 145.665 - 145.685
UWE-3 25 Jul 20:17:35 20:21:48 37° 73° (ENE) 20:25:56 435.000/436.395/437.385
Tancredo 1 25 Jul 20:25:15 20:28:08 60° 319° (NW) 20:31:03 437.200
AAUSAT CUBESAT 2 25 Jul 20:28:22 20:32:16 45° 74° (ENE) 20:36:12 437.432
ZACube-1 25 Jul 20:30:26 20:34:11 27° 72° (ENE) 20:37:53 437.345
STRAND 1 25 Jul 20:35:30 20:40:31 53° 100° (E) 20:45:28 437.568
HO-68 25 Jul 20:41:52 20:48:42 46° 260° (W) 20:55:33 435.675
RS-15 25 Jul 20:52:20 20:58:20 14° 349° (N) 21:04:19 29.354- 29.394
nSIGHT-1 25 Jul 20:52:36 20:55:49 79° 136° (SE) 20:59:03 .
Oscar 11 25 Jul 20:55:16 20:59:08 34° 72° (ENE) 21:03:01 .
CUBEBUG 2 25 Jul 20:56:55 21:01:25 44° 261° (W) 21:05:51 437.445
BEESAT 3 25 Jul 21:09:03 21:10:04 11° 47° (NE) 21:11:03 437.485
AO-73 25 Jul 21:09:29 21:13:54 71° 76° (ENE) 21:18:15 145.935
CUTE 1.7 + AOD 2 25 Jul 21:13:28 21:15:28 13° 267° (W) 21:17:28 437.475
SEEDS 25 Jul 21:23:47 21:26:20 16° 266° (W) 21:28:52 437.485
DELFI C3 25 Jul 21:26:16 21:28:46 16° 69° (ENE) 21:31:16 145.870
EO-88 25 Jul 21:43:38 21:45:45 15° 69° (ENE) 21:47:51 145.990 - 145.960
ISS 25 Jul 21:47:52 21:50:42 27° 325° (NW) 21:53:32 437.550
BEESAT 2 25 Jul 21:50:41 21:51:22 10° 46° (NE) 21:52:04 435.950
UWE-3 25 Jul 21:55:17 21:58:17 17° 266° (W) 22:01:16 435.000/436.395/437.385
YUBILEINY 25 Jul 22:01:12 22:04:37 13° 297° (WNW) 22:08:03 435.215
FO-29 25 Jul 22:03:57 22:09:35 27° 92° (E) 22:14:39 435.910
AAUSAT CUBESAT 2 25 Jul 22:06:42 22:07:55 11° 268° (W) 22:09:09 437.432
ZACube-1 25 Jul 22:06:55 22:10:23 22° 264° (W) 22:13:49 437.345
STRAND 1 25 Jul 22:16:11 22:19:11 16° 295° (WNW) 22:22:11 437.568
AO-85 25 Jul 22:21:08 22:25:24 68° 60° (ENE) 22:30:00 145.980
TIGRISAT 25 Jul 22:23:26 22:25:35 14° 93° (E) 22:27:43 435.000
nSIGHT-1 25 Jul 22:31:00 22:32:35 13° 333° (NNW) 22:34:10 .
Oscar 11 25 Jul 22:32:34 22:35:19 17° 266° (W) 22:38:04 .
BEESAT 3 25 Jul 22:44:06 22:48:03 66° 243° (WSW) 22:51:55 437.485
PRISM 25 Jul 22:58:01 23:01:45 31° 98° (E) 23:05:28 437.425
DELFI C3 25 Jul 22:59:50 23:03:16 29° 263° (W) 23:06:44 145.870
RS-15 25 Jul 23:09:53 23:18:09 20° 27° (NNE) 23:26:10 29.354- 29.394
JUGNU 25 Jul 23:14:00 23:16:51 14° 168° (SSE) 23:19:41 437.505
UNISAT 6 25 Jul 23:14:10 23:18:26 64° 101° (E) 23:22:39 437.425
EO-88 25 Jul 23:16:03 23:19:09 26° 263° (W) 23:22:17 145.990 - 145.960
LO-87 25 Jul 23:17:39 23:20:47 28° 73° (ENE) 23:23:56 145.935 - 145.965
BEESAT 2 25 Jul 23:25:32 23:29:35 72° 243° (WSW) 23:33:33 435.950
ESTCUBE 1 25 Jul 23:43:50 23:48:00 40° 73° (ENE) 23:52:11 437.505/2401.250
FO-29 25 Jul 23:48:16 23:54:49 44° 291° (WNW) 00:00:38 435.910
M-CUBED/EXP-1 PRIME 25 Jul 23:49:42 23:54:13 50° 104° (ESE) 23:58:44 437.505
AIST 2D 25 Jul 23:54:50 23:57:10 17° 95° (E) 23:59:28 435.315
TIGRISAT 25 Jul 23:58:25 00:02:26 40° 287° (WNW) 00:06:23 435.000
VELOX 1 26 Jul 00:26:33 00:30:07 25° 70° (ENE) 00:33:44 145.980
PRISM 26 Jul 00:33:58 00:36:45 18° 292° (WNW) 00:39:31 437.425
LO-87 26 Jul 00:52:19 00:54:14 14° 266° (W) 00:56:08 145.935 - 145.965
DUCHIFAT 1 26 Jul 01:00:10 01:04:03 37° 98° (E) 01:07:55 145.980
JUGNU 26 Jul 01:01:09 01:05:08 18° 178° (S) 01:09:06 437.505
POLYITAN 1 26 Jul 01:03:47 01:07:54 55° 101° (E) 01:11:59 437.675
SPROUT 26 Jul 01:10:10 01:14:28 85° 259° (W) 01:18:47 437.525
UKube-1 26 Jul 01:11:28 01:13:54 15° 66° (ENE) 01:16:21 .
QB50P2 26 Jul 01:16:49 01:21:03 90° 211° (SSW) 01:25:14 145.880/145.840
O/OREOS (USA 219) 26 Jul 01:18:42 01:22:34 28° 64° (ENE) 01:26:26 437.305
RS-15 26 Jul 01:21:56 01:33:54 62° 55° (NE) 01:45:09 29.354- 29.394
ESTCUBE 1 26 Jul 01:22:19 01:24:56 15° 267° (W) 01:27:32 437.505/2401.250
M-CUBED/EXP-1 PRIME 26 Jul 01:25:23 01:28:10 16° 298° (WNW) 01:30:57 437.505
BUGSAT 1 26 Jul 01:26:16 01:29:11 19° 95° (E) 01:32:06 437.445
AIST 2D 26 Jul 01:27:35 01:30:16 21° 288° (WNW) 01:32:57 435.315
NANOSAT C BR1 26 Jul 01:28:00 01:32:13 82° 281° (W) 01:36:23 145.865
EO-79 26 Jul 01:28:35 01:32:47 72° 283° (WNW) 01:36:55 145.935-145.965
50 SAT 26 Jul 01:45:14 01:48:36 89° 240° (WSW) 01:52:02 437.505
VELOX 1 26 Jul 02:02:50 02:06:27 25° 264° (W) 02:10:05 145.980
DX 1 26 Jul 02:04:25 02:08:45 83° 257° (WSW) 02:13:09 434.975-435.025
SRMSAT 26 Jul 02:04:52 02:07:46 14° 169° (SSE) 02:10:38 437.500
Oscar 19 26 Jul 02:34:19 02:39:18 47° 100° (E) 02:44:16 437.125/150
DUCHIFAT 1 26 Jul 02:37:02 02:39:21 15° 293° (WNW) 02:41:40 145.980
POLYITAN 1 26 Jul 02:42:18 02:43:09 11° 295° (WNW) 02:44:00 437.675
ISS 26 Jul 02:43:02 02:44:02 11° 25° (NNE) 02:45:01 437.550
UKube-1 26 Jul 02:45:29 02:49:32 40° 261° (W) 02:53:38 .
JUGNU 26 Jul 02:49:55 02:53:26 16° 189° (S) 02:56:55 437.505
Tancredo 1 26 Jul 02:51:30 02:54:02 25° 35° (NE) 02:56:33 437.200
O/OREOS (USA 219) 26 Jul 02:58:18 03:01:47 22° 258° (WSW) 03:05:16 437.305
BUGSAT 1 26 Jul 03:01:06 03:04:31 26° 289° (WNW) 03:07:52 437.445
BEESAT 26 Jul 03:03:56 03:07:55 27° 69° (ENE) 03:11:54 436.000
Gurwin Techsat 1B 26 Jul 03:07:38 03:12:55 64° 101° (ESE) 03:18:10 435.225
ITUPSAT 1 26 Jul 03:17:22 03:21:44 37° 71° (ENE) 03:26:07 437.325
nSIGHT-1 26 Jul 03:23:10 03:25:44 21° 33° (NNE) 03:28:18 .
RS-15 26 Jul 03:35:25 03:45:32 35° 256° (WSW) 03:55:17 29.354- 29.394
SRMSAT 26 Jul 03:52:16 03:56:11 18° 179° (S) 04:00:06 437.500
MOZHAYETS 4 26 Jul 03:55:34 04:00:07 70° 75° (ENE) 04:04:40
PCSat 26 Jul 04:04:38 04:06:46 12° 103° (ESE) 04:08:54 145.827
Oscar 19 26 Jul 04:14:45 04:18:12 18° 294° (WNW) 04:21:38 437.125/150
ISS 26 Jul 04:17:43 04:20:59 75° 42° (NE) 04:24:14 437.550
Tancredo 1 26 Jul 04:27:02 04:29:19 20° 230° (SW) 04:31:35 437.200
ITAMSAT 1 26 Jul 04:28:02 04:32:55 40° 99° (E) 04:37:45 435.822/435.867
AO-7 26 Jul 04:29:29 04:37:28 47° 101° (ESE) 04:45:22 .
KKS-1 26 Jul 04:31:22 04:34:07 16° 66° (ENE) 04:36:50 437.445
CUBESAT XI-V 26 Jul 04:33:21 04:37:22 31° 71° (ENE) 04:41:24 437.345
BEESAT 26 Jul 04:41:35 04:45:34 26° 263° (W) 04:49:34 436.000
Gurwin Techsat 1B 26 Jul 04:49:29 04:52:15 14° 297° (WNW) 04:55:03 435.225
ITUPSAT 1 26 Jul 04:56:12 04:59:37 19° 265° (W) 05:03:02 437.325
STARS 26 Jul 04:59:03 05:01:03 13° 65° (ENE) 05:03:02 437.465
nSIGHT-1 26 Jul 04:59:15 05:02:10 31° 228° (SW) 05:05:04 .
SO-50 26 Jul 05:23:16 05:24:38 11° 107° (ESE) 05:26:00 436.795
SRMSAT 26 Jul 05:41:17 05:44:37 15° 189° (S) 05:47:59 437.500
PCSat 26 Jul 05:44:04 05:49:27 71° 297° (WNW) 05:54:54 145.827
KKS-1 26 Jul 06:06:04 06:10:16 40° 261° (W) 06:14:31 437.445
ITAMSAT 1 26 Jul 06:08:13 06:12:03 21° 294° (WNW) 06:15:53 435.822/435.867
CUBESAT XI-V 26 Jul 06:11:18 06:14:44 21° 265° (W) 06:18:11 437.345
